ONEWEB-0019, 45449

Orbit data source: Space-Track

ONEWEB-0019, 45449 is a payload satellite owned by One Web (UK) in LEO that was launched on Sat, 21 Mar 2020 UTC via a SOYUZ-2-1B launch vehicle from the Tyuratam Missile And Space Complex (TTMTR). Payload-class satellites include a variety of spacecraft equipped with specific instruments for various scientific and technological missions. These include communications satellites like Starlink; space stations such as the ISS; scientific satellites like the Hubble; Earth observation satellites from companies like Planet Labs, Umbra, and HawkEye 360; GPS; miniature CubeSats for education and research; and military/defense satellites.

Loading next visibility...
Identifier
45449, 2020-020AB
Orbit
LEO
Last TLE update
14 hours ago
Origin
Manufacturer
One Web
Mission
Operational Commercial Communications
Bus & Motor
ARROW, Unknown motor
Mass
148 kg wet, ~140 kg dry
Launch date (UTC)
2020-03-21 (5 years ago)
Launch vehicle
SOYUZ-2-1B
Launch site
Tyuratam Missile And Space Complex (TTMTR)
Object type
Payload
Rocket body
Debris
Shape & HBR
Trap Box + 2 Pan, 5 m
Radar Cross Section
2.957 m², Large (>1 m²)

Expand to show TLE details & history

TLE from 14 hours ago
0 ONEWEB-0019
1 45449U 20020AB  25181.80091236  .00000231  00000-0  61483-3 0  9997
2 45449  87.8844  91.1129 0001996  79.5704 280.5648 13.11417718256489
Epoch: 2025-06-30T19:13Z
TLE epoch observation values (Epoch: 2025-06-30T19:13:18.827Z)
Latitude
-0.00013°
Longitude
-116.32106°
Altitude
1,220.291 km
Speed
7.244 km/s
True Right ascension
06h 04m 27s
True Declination
0° 00' 00"
Sunlit
Object was in daylight at epoch
Visualization orbit readout
Latitude
-83.39306°
Longitude
-134.94056°
Altitude
1,247.685 km
Speed
7.23 km/s
Apparent Right ascension
08h 31m 00s
Apparent Declination
-65° 18' 03"
Sunlit
Object is in daylight
Visualization observer readout
Local Sidereal Time
21:04:57
Azimuth
171.869° S
Elevation
-64.15°
Doppler factor
1
Orbital elements
Apogee altitude
1,216.314 km
Perigee altitude
1,213.282 km
Semi-major axis
7,592.935 km
Eccentricity
0.0002
Inclination
87.8844°
RAAN
91.1129°
Arg. of periapsis
79.5704°
True anomaly
Unknown
Mean anomaly
280.5648°
Eccentric anomaly
Unknown
Mean motion
3.28041 °/min
Orbital period
109.74 mins
BSTAR
0.00061483
Loading maneuver chart data...
Loading SW <> Apogee altitude chart data...
Loading historical data...
Loading historical data...
Loading historical data...
Loading historical data...
Loading historical data...
Loading historical data...
Loading historical data...

ONEWEB-0019 Visibility forecast

Observer location: undefined°, undefined°

Span
Click to sort rows by Start time (UTC) header in descending order
Start Az.
Max El. time (UTC)
Max El. Az.
Max El.
End time (UTC)
End Az.
11 mins2025-07-01 17:18:40.351Z134.272° SE2025-07-01 17:24:40.351Z72.864° E27.395°2025-07-01 17:29:40.351Z24.11° NE
12 mins2025-07-01 19:08:40.351Z210.762° SW2025-07-01 19:13:40.351Z271.831° WNW35.862°2025-07-01 19:20:40.351Z348.245° N
10 mins2025-07-02 04:48:40.351Z32.585° NE2025-07-02 04:52:40.351Z71.861° E22.813°2025-07-02 04:58:40.351Z128.664° SE
12 mins2025-07-02 06:37:40.351Z348.347° N2025-07-02 06:43:40.351Z266.082° W40.212°2025-07-02 06:49:40.351Z200.57° SSW
|